Lid_Strength_Index
1 0 -0 -1 -1 -1 -0 -0 -0 -1 -1 -1 -1 -1 -1 -1 -1 -1 -1 -1 -1 -1 -2 -2 -2 -2 -2 -2 -2 -2 -2 -2 -2 -2 -2 -2 -2 -2 -2 -2 -1 -1 -2
0 -0 -0 -0 -1 -1 -1 -1 -1 -1 -1 -1 -1 -1 -1 -1 -1 -1 -1 -1 -1 -1 -2 -2 -2 -2 -1 -2 -2 -2 -1 -1 -1 -2 -2 -2 -2 -2 -2 -2 -2 -1 -2
1 0 -0 -0 -1 -1 -1 -1 -1 -1 -1 -1 -1 -1 -1 -1 -1 -1 -1 -1 -1 -1 -2 -2 -2 -2 -2 -2 -1 -1 -1 -1 -2 -2 -2 -1 -1 -2 -2 -2 -2 -2 -2
0 -0 -0 -0 -0 -1 -1 -1 -1 -1 -1 -1 -1 -1 -1 -1 -1 -1 -1 -1 -1 -1 -2 -2 -2 -2 -2 -1 -1 -1 -2 -2 -2 -2 -1 -1 -1 -2 -2 -2 -2 -2 -2
0 -0 -0 -0 -0 -1 -1 -1 -1 -0 -1 -1 -1 -1 -1 -1 -1 -1 -1 -1 -1 -1 -2 -2 -2 -2 -1 -1 -1 -1 -2 -2 -2 -1 -1 -1 -1 -1 -2 -2 -2 -2 -2
1 0 -0 -0 -0 -0 -1 -1 -1 -0 -0 -0 -1 -1 -1 -1 -1 -1 -1 -1 -1 -1 -2 -2 -2 -1 -1 -1 -1 -1 -2 -2 -1 -1 -1 -1 -1 -2 -2 -2 -2 -2 -1
1 0 0 0 -0 -0 -1 -1 -0 -0 -0 -0 -1 -1 -1 -1 -1 -1 -1 -1 -1 -1 -2 -2 -1 -1 -1 -1 -1 -1 -2 -1 1 0 -0 -1 -1 -2 -2 -2 -2 -1 -1
1 0 0 -1 -0 -0 -0 -0 -0 -0 -0 -0 -0 -0 -1 -1 -1 -1 -1 -1 -1 -1 -1 -1 -1 -1 -1 -1 -1 -1 -1 -0 1 1 0 -0 -2 -2 -2 -2 -1 -0 -1
0 0 0 1 -0 -0 0 0 0 -0 -0 0 -0 -0 -1 -1 -1 -1 -1 -1 -1 -1 -1 -1 -1 -1 -1 -1 -1 -1 -0 0 2 1 1 1 -2 -2 -1 -1 -0 -0 -0
1 1 0 0 0 1 0 0 0 -0 0 0 0 -0 -1 -1 -1 -1 -1 -1 -1 -1 -1 -1 -1 -1 -1 -1 -1 -0 -0 1 2 2 1 0 -1 -1 -1 -0 -0 -0 -0
1 1 0 0 0 -0 0 -0 -0 -1 -0 -0 0 -0 -0 -0 -1 -1 -1 -1 -1 -1 -1 -1 -1 -1 -1 -1 -0 0 1 2 2 2 1 -1 -1 -1 -1 0 -0 -0 -0
2 2 2 1 1 1 -0 -0 1 0 0 0 0 -0 -0 -0 -1 -1 -1 -1 -1 -1 -1 -1 -1 -1 -0 1 1 1 2 3 2 2 1 -1 -1 -1 -0 0 -0 -0 0
6 1 2 2 1 1 1 -0 1 2 2 1 1 0 -0 -0 -0 -0 -0 -1 -1 -1 -0 -0 -0 0 1 1 2 2 2 3 3 2 0 -1 -1 -1 -0 -0 0 0 0
12 10 3 1 1 0 0 0 -0 1 1 1 1 0 -0 -0 -0 1 1 -0 0 0 0 0 0 1 1 2 2 2 3 3 3 2 0 -0 -0 -0 -0 -0 0 0 1
12 12 10 7 1 0 0 0 0 0 0 0 0 -0 -0 0 0 1 1 0 0 0 0 0 1 1 2 2 2 3 3 3 3 3 1 0 0 -0 -0 -0 0 1 1
11 11 11 9 1 1 0 0 0 -0 -0 0 0 -0 -0 -0 -0 1 2 2 0 0 1 1 0 2 3 3 3 3 3 3 4 3 1 1 0 0 -0 0 0 1 1
10 8 9 9 7 1 0 0 0 0 0 0 0 0 0 -0 -0 -0 2 3 1 1 1 1 1 2 3 3 3 3 3 4 4 3 2 2 1 0 0 1 1 1 1
9 9 7 8 8 2 0 1 0 -0 0 0 -0 -0 0 -0 -0 0 1 3 2 1 1 1 1 2 3 3 3 3 3 4 4 3 2 3 2 2 1 1 1 1 1
9 8 8 8 8 8 1 1 0 0 0 -0 0 -0 -0 -0 -0 0 1 2 2 2 2 1 2 2 3 4 3 3 3 4 3 3 3 3 3 3 3 1 1 1 1
9 8 7 8 9 9 7 1 1 0 1 -0 0 -0 -0 -0 0 0 1 1 2 2 2 1 2 2 3 3 3 4 3 3 3 3 3 3 3 3 3 3 2 2 2
9 9 8 8 10 9 8 6 2 2 1 1 0 0 -0 0 0 1 1 2 2 3 3 2 2 3 3 3 5 5 4 3 3 3 3 3 3 3 4 4 3 4 3
9 9 8 8 9 10 8 9 5 1 1 1 0 0 0 0 0 0 2 1 2 3 3 2 2 3 3 3 5 5 6 5 3 2 3 3 4 4 4 4 4 4 4
10 9 8 9 9 9 9 8 6 1 1 1 1 1 0 0 1 1 1 1 1 2 2 2 2 2 4 4 3 4 6 6 4 3 3 3 4 4 4 4 4 4 5
9 8 8 8 9 8 9 9 9 5 3 2 1 1 1 1 1 1 1 1 1 1 2 2 2 2 3 4 3 3 4 4 5 6 4 3 3 4 5 5 5 5 5
9 9 8 8 8 9 9 10 9 8 3 1 2 1 1 1 1 1 1 3 1 1 1 1 1 2 2 3 3 4 4 5 5 5 5 5 4 4 4 5 5 5 5
10 9 8 9 8 9 9 10 10 9 8 4 2 2 2 1 1 2 2 3 1 0 1 1 1 2 2 2 2 3 4 5 6 6 6 6 4 5 4 5 5 5 5